KAL086 KJFK-RKSI

Flight info

Callsign KAL086
Flight time N/A
Altitude 31000
Route GREKI DCT JUDDS DCT CAM/N0500F300 DCT TALNO/N0501F320 DCT 54N080W 61N090W 64N100W/N0496F340 66N110W 67N120W 67N130W DCT GOATS DCT BTT NCA30 OME/N0495F360 R338 NATES/N0502F370 R220 NRKEY/N0496F380 R220 NUBDA/N0505F390 R220 NODAN/N0503F380 R217 ASTER Y514 SDE Y512 GTC/N0501F400 L512 TENAS Y437 KAE Y697 KARBU
Aircraft B748/H-SDE3FGHIM1M2RWXY/LB1

Departure

Time 2026-05-09 01:06
Airport John F. Kennedy International Airport (KJFK)

Arrival

Time N/A
Airport Incheon International Airport (RKSI)
Time Latitude Longitude Altitude Speed Heading
2026-05-09 00:38 40.64113 -73.79209 27 ft 0 kts 327°
2026-05-09 00:49 40.64103 -73.79200 25 ft 2 kts 327°
2026-05-09 00:49 40.64089 -73.79188 25 ft 2 kts 327°
2026-05-09 00:49 40.64075 -73.79177 25 ft 2 kts 317°
2026-05-09 00:50 40.64065 -73.79160 24 ft 2 kts 276°
2026-05-09 00:50 40.64066 -73.79139 23 ft 2 kts 225°
2026-05-09 00:50 40.64065 -73.79142 24 ft 2 kts 233°
2026-05-09 00:50 40.64057 -73.79158 25 ft 2 kts 233°
2026-05-09 00:51 40.64046 -73.79172 26 ft 2 kts 225°
2026-05-09 00:51 40.64035 -73.79185 27 ft 1 kts 224°
2026-05-09 00:56 40.64033 -73.79188 27 ft 3 kts 224°
2026-05-09 00:56 40.63996 -73.79235 27 ft 10 kts 224°
2026-05-09 00:56 40.63948 -73.79294 27 ft 9 kts 220°
2026-05-09 00:57 40.63917 -73.79306 27 ft 2 kts 167°
2026-05-09 00:57 40.63871 -73.79255 27 ft 15 kts 129°
2026-05-09 00:57 40.63823 -73.79150 27 ft 12 kts 121°
2026-05-09 00:57 40.63777 -73.79050 27 ft 13 kts 121°
2026-05-09 00:58 40.63729 -73.78945 28 ft 15 kts 121°
2026-05-09 00:58 40.63675 -73.78825 28 ft 14 kts 121°
2026-05-09 00:58 40.63621 -73.78707 27 ft 15 kts 121°
2026-05-09 00:58 40.63567 -73.78587 29 ft 15 kts 121°
2026-05-09 00:59 40.63515 -73.78473 28 ft 14 kts 121°
2026-05-09 00:59 40.63466 -73.78364 28 ft 14 kts 121°
2026-05-09 00:59 40.63418 -73.78258 28 ft 14 kts 121°
2026-05-09 00:59 40.63368 -73.78147 28 ft 14 kts 120°
2026-05-09 01:00 40.63332 -73.78029 28 ft 14 kts 102°
2026-05-09 01:00 40.63339 -73.77917 28 ft 11 kts 79°
2026-05-09 01:00 40.63327 -73.77842 29 ft 6 kts 116°
2026-05-09 01:00 40.63304 -73.77794 30 ft 7 kts 122°
2026-05-09 01:01 40.63271 -73.77723 30 ft 11 kts 121°
2026-05-09 01:01 40.63229 -73.77631 30 ft 13 kts 121°
2026-05-09 01:01 40.63178 -73.77517 28 ft 16 kts 121°
2026-05-09 01:01 40.63119 -73.77388 28 ft 16 kts 121°
2026-05-09 01:02 40.63065 -73.77269 28 ft 12 kts 120°
2026-05-09 01:02 40.63026 -73.77181 27 ft 8 kts 121°
2026-05-09 01:02 40.63024 -73.77178 27 ft 0 kts 121°
2026-05-09 01:03 40.63018 -73.77166 27 ft 3 kts 120°
2026-05-09 01:04 40.62998 -73.77120 27 ft 8 kts 121°
2026-05-09 01:04 40.62977 -73.77085 27 ft 2 kts 149°
2026-05-09 01:04 40.62945 -73.77089 27 ft 8 kts 199°
2026-05-09 01:04 40.62889 -73.77129 28 ft 8 kts 209°
2026-05-09 01:05 40.62842 -73.77165 28 ft 8 kts 211°
2026-05-09 01:05 40.62821 -73.77200 28 ft 4 kts 252°
2026-05-09 01:05 40.62895 -73.77389 29 ft 37 kts 301°
2026-05-09 01:06 40.63155 -73.77968 31 ft 108 kts 300°
2026-05-09 01:06 40.63648 -73.79053 29 ft 168 kts 301°
2026-05-09 01:06 40.64332 -73.80575 113 ft 212 kts 299°
2026-05-09 01:06 40.64990 -73.82258 1276 ft 194 kts 284°
2026-05-09 01:07 40.65074 -73.83988 1966 ft 199 kts 259°
2026-05-09 01:07 40.64376 -73.85666 2041 ft 214 kts 223°
2026-05-09 01:07 40.63167 -73.86665 2730 ft 200 kts 209°
2026-05-09 01:07 40.61866 -73.87440 2890 ft 213 kts 206°
2026-05-09 01:08 40.60439 -73.88189 2977 ft 227 kts 201°
2026-05-09 01:08 40.58901 -73.88478 3522 ft 225 kts 178°
2026-05-09 01:08 40.57390 -73.87838 3734 ft 239 kts 154°
2026-05-09 01:08 40.55904 -73.86736 3926 ft 249 kts 155°
2026-05-09 01:09 40.54336 -73.85732 4120 ft 254 kts 157°
2026-05-09 01:09 40.52866 -73.84400 4439 ft 262 kts 137°
2026-05-09 01:09 40.51797 -73.82423 4640 ft 271 kts 116°
2026-05-09 01:09 40.51332 -73.79978 4882 ft 284 kts 88°
2026-05-09 01:10 40.51753 -73.77454 5203 ft 292 kts 59°
2026-05-09 01:10 40.52972 -73.75258 5404 ft 304 kts 43°
2026-05-09 01:10 40.54497 -73.73308 5777 ft 311 kts 38°
2026-05-09 01:10 40.56128 -73.71382 6248 ft 316 kts 37°
2026-05-09 01:11 40.57795 -73.69440 6729 ft 321 kts 37°
2026-05-09 01:11 40.59478 -73.67473 7213 ft 325 kts 37°
2026-05-09 01:11 40.61162 -73.65493 7683 ft 329 kts 37°
2026-05-09 01:11 40.62881 -73.63460 8159 ft 333 kts 37°
2026-05-09 01:12 40.64595 -73.61425 8683 ft 337 kts 37°
2026-05-09 01:12 40.66347 -73.59332 9307 ft 341 kts 37°
2026-05-09 01:12 40.68088 -73.57235 10090 ft 336 kts 37°
2026-05-09 01:12 40.69798 -73.55146 10564 ft 331 kts 37°
2026-05-09 01:13 40.71460 -73.53092 10867 ft 328 kts 37°
2026-05-09 01:13 40.73124 -73.51009 11171 ft 327 kts 37°
2026-05-09 01:13 40.74752 -73.48956 11443 ft 326 kts 37°
2026-05-09 01:13 40.76390 -73.46876 11691 ft 325 kts 37°
2026-05-09 01:14 40.78202 -73.45250 11984 ft 305 kts 11°
2026-05-09 01:14 40.80212 -73.44723 12231 ft 289 kts 353°
2026-05-09 01:14 40.82189 -73.44707 12444 ft 285 kts 349°
2026-05-09 01:14 40.84176 -73.44830 12641 ft 285 kts 347°
2026-05-09 01:15 40.86152 -73.44987 12848 ft 285 kts 347°
2026-05-09 01:15 40.88133 -73.45149 13052 ft 286 kts 347°
2026-05-09 01:15 40.90122 -73.45310 13265 ft 286 kts 347°
2026-05-09 01:15 40.92133 -73.45403 13405 ft 295 kts 356°
2026-05-09 01:16 40.94208 -73.44973 13474 ft 314 kts 359°
2026-05-09 01:16 40.96407 -73.44482 13777 ft 324 kts
2026-05-09 01:16 40.98631 -73.43907 14219 ft 329 kts
2026-05-09 01:17 41.03162 -73.42745 15173 ft 334 kts
2026-05-09 01:17 41.05466 -73.42177 15673 ft 336 kts
2026-05-09 01:17 41.07762 -73.41603 16161 ft 339 kts
2026-05-09 01:17 41.10090 -73.41012 16654 ft 341 kts
2026-05-09 01:18 41.12440 -73.40418 17151 ft 343 kts
2026-05-09 01:18 41.14768 -73.39834 17629 ft 345 kts
2026-05-09 01:18 41.17148 -73.39236 18123 ft 348 kts
2026-05-09 01:18 41.19547 -73.38630 18561 ft 350 kts
2026-05-09 01:19 41.21926 -73.38029 18980 ft 353 kts
2026-05-09 01:19 41.24352 -73.37416 19412 ft 355 kts
2026-05-09 01:19 41.26797 -73.36798 19840 ft 357 kts
2026-05-09 01:19 41.29230 -73.36183 20264 ft 359 kts
2026-05-09 01:20 41.31703 -73.35557 20697 ft 362 kts
2026-05-09 01:20 41.34192 -73.34927 21104 ft 364 kts
2026-05-09 01:20 41.36670 -73.34298 21505 ft 366 kts
2026-05-09 01:20 41.39191 -73.33658 21929 ft 368 kts
2026-05-09 01:21 41.41698 -73.33022 22329 ft 371 kts
2026-05-09 01:21 41.44256 -73.32365 22747 ft 374 kts
2026-05-09 01:21 41.46788 -73.31258 23173 ft 389 kts 15°
2026-05-09 01:21 41.49171 -73.29476 23576 ft 404 kts 27°
2026-05-09 01:22 41.51345 -73.26992 23913 ft 417 kts 36°
2026-05-09 01:22 41.53422 -73.24237 24210 ft 420 kts 36°
2026-05-09 01:22 41.55474 -73.21488 24495 ft 423 kts 36°
2026-05-09 01:22 41.57577 -73.18682 24798 ft 426 kts 36°
2026-05-09 01:23 41.59752 -73.16041 24908 ft 424 kts 26°
2026-05-09 01:23 41.62263 -73.13989 25009 ft 419 kts 15°
2026-05-09 01:23 41.64945 -73.12641 25111 ft 414 kts
2026-05-09 01:23 41.67748 -73.11991 25211 ft 408 kts 354°
2026-05-09 01:24 41.70602 -73.12050 25333 ft 404 kts 344°
2026-05-09 01:24 41.73379 -73.12513 25396 ft 411 kts 344°
2026-05-09 01:24 41.76275 -73.13005 25471 ft 419 kts 344°
2026-05-09 01:24 41.79179 -73.13503 25539 ft 427 kts 344°
2026-05-09 01:25 41.82134 -73.14008 25598 ft 435 kts 345°
2026-05-09 01:25 41.85172 -73.14525 25685 ft 443 kts 345°
2026-05-09 01:25 41.88241 -73.15048 25846 ft 449 kts 345°
2026-05-09 01:25 41.91372 -73.15583 26054 ft 453 kts 345°
2026-05-09 01:26 41.94517 -73.16121 26286 ft 457 kts 345°
2026-05-09 01:26 41.97699 -73.16666 26526 ft 460 kts 345°
2026-05-09 01:26 42.00858 -73.17208 26790 ft 463 kts 345°
2026-05-09 01:26 42.04074 -73.17761 27056 ft 465 kts 345°
2026-05-09 01:27 42.07273 -73.18311 27340 ft 468 kts 345°
2026-05-09 01:27 42.10516 -73.18869 27625 ft 470 kts 345°
2026-05-09 01:27 42.13786 -73.19432 27917 ft 472 kts 345°
2026-05-09 01:27 42.17039 -73.19993 28224 ft 474 kts 344°
2026-05-09 01:28 42.20303 -73.20557 28504 ft 477 kts 344°
2026-05-09 01:28 42.23599 -73.21127 28794 ft 479 kts 345°
2026-05-09 01:28 42.26944 -73.21705 29140 ft 480 kts 344°
2026-05-09 01:28 42.30228 -73.22271 29624 ft 478 kts 344°
2026-05-09 01:29 42.33526 -73.22842 30109 ft 476 kts 344°
2026-05-09 01:29 42.36834 -73.23418 30458 ft 477 kts 344°
2026-05-09 01:29 42.40095 -73.23988 30704 ft 479 kts 344°
2026-05-09 01:29 42.43430 -73.24569 30939 ft 481 kts 344°
2026-05-09 01:30 42.49983 -73.25696 30922 ft 465 kts 343°
2026-05-09 01:30 42.56397 -73.26834 30953 ft 465 kts 343°
2026-05-09 01:31 42.62832 -73.27951 30973 ft 468 kts 344°
2026-05-09 01:31 42.68211 -73.28896 30962 ft 468 kts 344°
2026-05-09 01:32 42.74688 -73.30033 30964 ft 468 kts 344°
2026-05-09 01:32 42.81141 -73.31169 30963 ft 468 kts 343°
2026-05-09 01:33 42.87590 -73.32307 30958 ft 469 kts 344°
2026-05-09 01:33 42.94056 -73.33449 30962 ft 469 kts 344°
2026-05-09 01:34 43.00428 -73.34951 30961 ft 458 kts 334°
2026-05-09 01:34 43.06394 -73.37822 30965 ft 454 kts 332°
2026-05-09 01:35 43.12333 -73.40742 30972 ft 454 kts 332°
2026-05-09 01:35 43.18322 -73.43698 30960 ft 456 kts 332°
2026-05-09 01:36 43.24254 -73.46626 30958 ft 456 kts 332°
2026-05-09 01:36 43.30211 -73.49579 30956 ft 456 kts 332°
2026-05-09 01:37 43.36191 -73.52545 30954 ft 456 kts 332°
2026-05-09 01:37 43.42157 -73.55512 30947 ft 456 kts 332°
2026-05-09 01:38 43.48115 -73.58481 30958 ft 456 kts 332°
2026-05-09 01:38 43.54081 -73.61461 30953 ft 458 kts 333°
2026-05-09 01:39 43.60068 -73.64456 30957 ft 457 kts 333°
2026-05-09 01:39 43.66043 -73.67452 30958 ft 457 kts 333°
2026-05-09 01:40 43.72012 -73.70452 30940 ft 458 kts 333°
2026-05-09 01:40 43.77980 -73.73458 30945 ft 458 kts 333°
2026-05-09 01:41 43.84000 -73.76496 30951 ft 458 kts 333°
2026-05-09 01:41 43.89970 -73.79516 30952 ft 458 kts 333°
2026-05-09 01:42 43.95964 -73.82554 30945 ft 459 kts 333°
2026-05-09 01:42 44.01938 -73.85588 30945 ft 459 kts 333°
2026-05-09 01:43 44.07938 -73.88644 30938 ft 460 kts 333°
2026-05-09 01:43 44.13972 -73.91721 30935 ft 461 kts 333°
2026-05-09 01:44 44.19992 -73.94799 30932 ft 462 kts 333°
2026-05-09 01:44 44.26030 -73.97893 30934 ft 463 kts 333°
2026-05-09 01:45 44.32060 -74.00990 30927 ft 464 kts 333°
2026-05-09 01:45 44.38118 -74.04107 30901 ft 465 kts 334°
2026-05-09 01:46 44.44222 -74.07255 30910 ft 465 kts 334°
2026-05-09 01:46 44.50295 -74.10395 30912 ft 466 kts 334°
2026-05-09 01:47 44.56378 -74.13548 31013 ft 470 kts 334°
2026-05-09 01:47 44.59470 -74.15152 31296 ft 471 kts 334°
2026-05-09 01:47 44.62516 -74.16733 31582 ft 471 kts 334°
2026-05-09 01:48 44.65607 -74.18341 31890 ft 471 kts 334°
2026-05-09 01:48 44.68665 -74.19934 31896 ft 472 kts 334°
2026-05-09 01:48 44.74771 -74.23117 31896 ft 468 kts 334°
2026-05-09 01:49 44.80907 -74.26327 31902 ft 469 kts 334°
2026-05-09 01:49 44.87015 -74.29526 31895 ft 469 kts 334°
2026-05-09 01:50 44.93118 -74.32732 31899 ft 469 kts 334°
2026-05-09 01:50 44.99232 -74.35950 31900 ft 469 kts 334°
2026-05-09 01:51 45.05367 -74.39119 31902 ft 470 kts 335°
2026-05-09 01:51 45.11490 -74.42275 31903 ft 469 kts 334°
2026-05-09 01:52 45.17603 -74.45449 31895 ft 467 kts 334°
2026-05-09 01:52 45.23740 -74.48631 31890 ft 468 kts 334°
2026-05-09 01:53 45.29825 -74.51802 31894 ft 468 kts 334°
2026-05-09 01:53 45.35917 -74.54978 31892 ft 469 kts 334°
2026-05-09 01:54 45.42078 -74.58201 31888 ft 469 kts 334°
2026-05-09 01:54 45.48179 -74.61397 31890 ft 469 kts 334°
2026-05-09 01:55 45.54333 -74.64630 31886 ft 469 kts 334°
2026-05-09 01:55 45.60459 -74.67856 31894 ft 471 kts 334°
2026-05-09 01:56 45.66582 -74.71088 31887 ft 472 kts 334°
2026-05-09 01:56 45.72752 -74.74351 31885 ft 472 kts 334°
2026-05-09 01:57 45.78930 -74.77627 31883 ft 473 kts 334°
2026-05-09 01:57 45.85100 -74.80906 31891 ft 472 kts 334°
2026-05-09 01:58 45.91241 -74.84178 31885 ft 472 kts 334°
2026-05-09 01:58 45.97388 -74.87461 31882 ft 472 kts 334°
2026-05-09 01:59 46.03538 -74.90752 31880 ft 472 kts 334°
2026-05-09 01:59 46.09725 -74.94073 31872 ft 472 kts 334°
2026-05-09 02:00 46.15845 -74.97364 31873 ft 472 kts 334°
2026-05-09 02:00 46.21997 -75.00681 31872 ft 472 kts 334°
2026-05-09 02:01 46.28169 -75.04017 31869 ft 472 kts 334°